Location: Knowlton
(51.2333°N, 1.2667°E)
Time: 09:09:57
(UTC+00:00)

Orbus 7S? - Pass Details

Date: 18 April 2021
Orbit: 334 x 6415 km, 56.9° (Epoch: 01 May)

Event Time Altitude Azimuth Distance (km) Brightness Sun altitude
Rises 20:15:05 0° 223° (SW) 2,181 6.5 -11.8°
Reaches altitude 10° 20:16:39 10° 218° (SW) 1,463 5.5 -12.0°
Maximum altitude 20:19:31 57° 138° (SE) 654 3.3 -12.3°
Drops below altitude 10° 20:25:01 10° 61° (ENE) 2,772 6.6 -13.0°
Sets 20:29:02 0° 58° (ENE) 4,523 7.8 -13.5°
